Preview of NWS' New Version of Forecast
This preview is not operational and should not be used for support decisions.

Regional Weather Roundup (RWR)

Issued by National Weather Service (NWS)

                            
000
ASUS45 KBOU 181710
RWRCO 

WEATHER ROUNDUP FOR COLORADO
NATIONAL WEATHER SERVICE DENVER/BOULDER CO
1100 AM MDT THU APR 18 2019

NOTE: "FAIR" INDICATES FEW OR NO CLOUDS BELOW 12000 FEET WITH NO
SIGNIFICANT WEATHER AND/OR OBSTRUCTIONS TO VISIBILITY.

COZ001>005-013-030-031-181800-
...NORTHWEST COLORADO...
  
CITY           SKY/WX    TMP DP  RH WIND       PRES   REMARKS
CRAIG          PTSUNNY   52  31  44 NW17      30.33S                  
HAYDEN         PTSUNNY   46  31  55 NW15G24   30.34S                  
MEEKER         PTSUNNY   51  24  34 NW8       30.33S                  
RANGELY        FAIR      53  33  46 CALM      30.33S                  
RABBIT EARS PA NOT AVBL                                               
STEAMBOAT SPGS FAIR      44  28  53 W12G17    30.32R                  
WALDEN         FAIR      39  23  52 N17       30.31R                  
$$

COZ006>008-011-181800-
...WEST CENTRAL VALLEYS...
  
CITY           SKY/WX    TMP DP  RH WIND       PRES   REMARKS
GRAND JUNCTION FAIR      58  29  33 VRB3      30.32S                  
MONTROSE       FAIR      55  25  31 W6        30.35F                  
EAGLE          FAIR      52  25  35 SW9       30.32S                  
RIFLE          PTSUNNY   58  27  30 NW12G20   30.31S                  
DELTA          FAIR      57  26  30 CALM      30.33F                  
NUCLA          FAIR      55  23  28 W5        30.34F                  
$$

COZ017>023-064>068-181800-
...SOUTHWEST COLORADO...
  
CITY           SKY/WX    TMP DP  RH WIND       PRES   REMARKS
DURANGO        FAIR      57  16  20 NW7       30.23S                  
CORTEZ         FAIR      61  22  22 N13G20    30.26S                  
PAGOSA SPRINGS FAIR      56  11  16 S5        30.26S                  
TELLURIDE      FAIR      43  18  36 W6        30.39S                  
WOLF CREEK PAS FAIR      32   9  37 N15G25    30.43R WCI  22          
$$

COZ009-010-012-014-032>034-037-058>063-181800-
...CENTRAL COLORADO...
  
CITY           SKY/WX    TMP DP  RH WIND       PRES   REMARKS
ASPEN          FAIR      47  22  37 N12G23    30.33R                  
BUENA VISTA    FAIR      51  14  23 NW29G38   30.23R                  
COPPER MTN     CLOUDY    27  21  80 NW20G38   30.34R WCI  13          
BERTHOUD PASS  CLOUDY    18   9  68 NW40G55   30.26S WCI  -4          
COTTONWOOD PAS FAIR      43   9  24 NW13G26   30.27R                  
GUNNISON       FAIR      48  20  32 NW8G17    30.33R                  
GRANBY         CLOUDY    42  25  50 W15G23    30.29R                  
KREMMLING      FAIR      48  27  43 NW15G22   30.31R                  
LEADVILLE      CLOUDY    31  22  69 NW10G20   30.33R WCI  22          
MONARCH PASS   FAIR      32  14  47 NW14G30   30.48R WCI  22          
SALIDA         FAIR      55  16  20 N7        30.31S                  
SUNLIGHT       CLOUDY    30  23  74 SW6       30.44R WCI  24          
WILKERSON PASS FAIR      32  18  55 N16G31    30.32R WCI  21          
$$

COZ069>075-181800-
...SAN LUIS VALLEY/SANGRE DE CRISTO MOUNTAINS...
  
CITY           SKY/WX    TMP DP  RH WIND       PRES   REMARKS
ALAMOSA        FAIR      53  11  18 NW20G29   30.25S                  
DEL NORTE      FAIR      52  14  21 NE13G18   30.27S                  
LA VETA PASS   NOT AVBL                                               
SAGUACHE       FAIR      50  18  27 NW5G23    30.27R                  
$$

COZ035-036-038>040-181800-
...NORTHERN COLORADO FRONT RANGE...
  
CITY           SKY/WX    TMP DP  RH WIND       PRES   REMARKS
DENVER INTL AP PTSUNNY   47  37  68 NE9       30.23S                  
AURORA         PTSUNNY   45  36  70 NE13      30.23R                  
FRONT RANGE AP PTSUNNY   46  37  71 N7        30.24R                  
ERIE MUNI ARPT PTSUNNY   52  34  50 N10       30.27F                  
BOULDER MUN AP CLOUDY    46  36  66 CALM      30.22S                  
CENTENNIAL     PTSUNNY   47  35  63 N9G21     30.23S                  
BROOMFIELD     PTSUNNY   48  36  61 N7        30.24S                  
FORT COLLINS   NOT AVBL                                               
LONGMONT       FAIR      53  34  48 CALM      30.24S                  
$$

COZ041-046-047-076>085-087-088-181800-
...PIKES PEAK/PALMER DIVIDE AND SOUTHERN FOOTHILLS...
  
CITY           SKY/WX    TMP DP  RH WIND       PRES   REMARKS
COLO. SPRINGS  LGT RAIN  48  32  53 NE14      30.21R                  
A. F. ACADEMY  PTSUNNY   50  27  40 N16G26    30.21R                  
SCHRIEVER AFB  NOT AVBL                                               
CHEYENNE MTN   PTSUNNY   47  30  52 N9        30.16R                  
ELLICOTT         N/A    N/A N/A N/A NE14G21   30.21R                  
FALCON         PTSUNNY   44  31  60 NE20G25   30.23R                  
FORT CARSON    FAIR      53  32  44 NW6       30.20R                  
LIMON          CLOUDY    40  37  89 N16       30.23R                  
MONUMENT HILL  CLOUDY    36  32  87 NE14G22   30.26R                  
CANON CITY     PTSUNNY   61  28  29 NW10      30.14S                  
WALSENBURG     NOT AVBL                                               
TRINIDAD       FAIR      53  33  46 N3        30.19F                  
$$

COZ042>045-048>051-090-091-181800-
...NORTHEAST COLORADO...
  
CITY           SKY/WX    TMP DP  RH WIND       PRES   REMARKS
GREELEY ARPT   FAIR      53  33  46 N15G24    30.22S                  
AKRON          FAIR      50  32  50 N33G45    30.18R                  
BURLINGTON     PTSUNNY   53  32  44 N29G40    30.14S                  
WRAY           PTSUNNY   55  32  41 NW25G47   30.12S                  
YUMA           NOT AVBL                                               
STERLING       PTSUNNY   54  34  47 N25G37    30.15R                  
HOLYOKE        LGT RAIN  54  34  47 NW32G39   30.12S                  
FORT MORGAN      N/A     52  28  39 N30G41    30.21R                  
$$

COZ086-089-092>099-181800-
...SOUTHEAST COLORADO...
  
CITY           SKY/WX    TMP DP  RH WIND       PRES   REMARKS
PUEBLO         PTSUNNY   58  35  42 VRB5      30.17R                  
LA JUNTA       PTSUNNY   58  34  40 NE13      30.18S                  
LAMAR          FAIR      58  31  35 N28G45    30.17R                  
SPRINGFIELD      N/A     56  36  47 NW22G31   30.16R                  
$$